Location: Penzberg
(47.7615°N, 11.3159°E)
Time: 02:06:16
(UTC+01:00)

ISS - Pass Details

Date: 10 February 2018
Orbit: 403 x 407 km, 51.6° (Epoch: 22 February)

Event Time Altitude Azimuth Distance (km) Brightness Sun altitude
Rises 18:39:57 0° 292° (WNW) 2,322 1.1 -12.3°
Reaches altitude 10° 18:42:04 10° 287° (WNW) 1,460 0.1 -12.6°
Maximum altitude 18:45:15 50° 211° (SSW) 520 -3.1 -13.2°
Enters shadow 18:47:58 13° 137° (SE) 1,273 -1.7 -13.6°
